QPF
0.00 0.00 0.01 0.01 0.00 0.00 0.00 0.00 0.00 0.00 0.00 0.00 0.00 0.00 0.00 0.00 0.00 0.00 0.00 0.00 0.00 0.00 0.00 0.00 0.00 0.00 0.00 0.00 0.00 0.00 0.00 0.00 0.00 0.00 0.00 0.00 0.00 0.00 0.00 0.00 0.00 0.00 0.00
0.01 0.00 0.01 0.01 0.00 0.00 0.00 0.00 0.00 0.00 0.00 0.00 0.00 0.00 0.00 0.00 0.00 0.00 0.00 0.00 0.00 0.00 0.00 0.00 0.00 0.00 0.00 0.00 0.00 0.00 0.00 0.00 0.00 0.00 0.00 0.00 0.00 0.00 0.00 0.00 0.00 0.00 0.00
0.05 0.00 0.00 0.01 0.00 0.00 0.00 0.00 0.00 0.00 0.00 0.00 0.00 0.00 0.00 0.00 0.00 0.00 0.00 0.00 0.00 0.00 0.00 0.00 0.00 0.00 0.00 0.00 0.00 0.00 0.00 0.00 0.00 0.00 0.00 0.00 0.00 0.00 0.00 0.00 0.00 0.00 0.00
0.02 0.02 0.01 0.00 0.00 0.00 0.00 0.00 0.00 0.00 0.00 0.00 0.00 0.00 0.00 0.00 0.00 0.00 0.00 0.00 0.00 0.00 0.00 0.00 0.00 0.00 0.00 0.00 0.00 0.00 0.00 0.00 0.00 0.00 0.00 0.00 0.00 0.00 0.00 0.00 0.00 0.00 0.00
0.02 0.05 0.05 0.00 0.00 0.00 0.00 0.00 0.00 0.00 0.00 0.00 0.00 0.00 0.00 0.00 0.00 0.00 0.00 0.00 0.00 0.00 0.00 0.00 0.00 0.00 0.00 0.00 0.00 0.00 0.00 0.00 0.00 0.00 0.00 0.00 0.00 0.00 0.00 0.00 0.00 0.00 0.00
0.26 0.11 0.03 0.00 0.00 0.00 0.00 0.00 0.00 0.00 0.00 0.00 0.00 0.00 0.00 0.00 0.00 0.00 0.00 0.00 0.00 0.00 0.00 0.00 0.00 0.00 0.00 0.00 0.00 0.00 0.00 0.00 0.00 0.00 0.00 0.00 0.00 0.00 0.00 0.00 0.00 0.00 0.00
0.23 0.10 0.03 0.00 0.01 0.00 0.00 0.00 0.00 0.00 0.00 0.00 0.00 0.00 0.00 0.00 0.00 0.00 0.00 0.00 0.00 0.00 0.00 0.00 0.00 0.00 0.00 0.00 0.00 0.00 0.00 0.00 0.00 0.00 0.00 0.00 0.00 0.00 0.00 0.00 0.00 0.00 0.00
0.20 0.23 0.17 0.08 0.04 0.02 0.03 0.00 0.00 0.00 0.00 0.00 0.00 0.00 0.00 0.00 0.00 0.00 0.00 0.00 0.00 0.00 0.00 0.00 0.00 0.00 0.00 0.00 0.00 0.00 0.00 0.00 0.00 0.00 0.00 0.00 0.00 0.00 0.00 0.00 0.00 0.00 0.00
0.22 0.29 0.19 0.16 0.09 0.02 0.01 0.00 0.00 0.00 0.00 0.00 0.00 0.00 0.00 0.00 0.00 0.00 0.00 0.00 0.00 0.00 0.00 0.00 0.00 0.00 0.00 0.00 0.00 0.00 0.00 0.00 0.00 0.00 0.00 0.00 0.00 0.00 0.00 0.00 0.00 0.00 0.00
0.30 0.25 0.12 0.15 0.11 0.00 0.00 0.00 0.01 0.00 0.00 0.00 0.00 0.00 0.00 0.00 0.00 0.00 0.00 0.00 0.00 0.00 0.00 0.00 0.00 0.00 0.00 0.00 0.00 0.00 0.00 0.00 0.00 0.00 0.00 0.00 0.00 0.00 0.00 0.00 0.00 0.00 0.00
0.24 0.27 0.17 0.11 0.09 0.03 0.03 0.02 0.02 0.02 0.00 0.00 0.00 0.00 0.00 0.00 0.00 0.00 0.00 0.00 0.00 0.00 0.00 0.00 0.00 0.00 0.00 0.00 0.00 0.00 0.00 0.00 0.00 0.00 0.00 0.00 0.00 0.00 0.00 0.00 0.00 0.00 0.00
0.21 0.16 0.14 0.12 0.08 0.03 0.01 0.01 0.04 0.02 0.00 0.00 0.00 0.00 0.00 0.00 0.00 0.00 0.00 0.00 0.00 0.00 0.00 0.00 0.00 0.00 0.00 0.00 0.00 0.00 0.00 0.00 0.00 0.00 0.00 0.00 0.00 0.00 0.00 0.00 0.00 0.00 0.00
0.06 0.06 0.02 0.03 0.02 0.02 0.00 0.00 0.00 0.00 0.01 0.01 0.00 0.00 0.00 0.00 0.00 0.00 0.00 0.00 0.00 0.00 0.00 0.00 0.00 0.00 0.00 0.00 0.00 0.00 0.00 0.00 0.00 0.00 0.00 0.00 0.00 0.00 0.00 0.00 0.00 0.00 0.00
0.03 0.04 0.03 0.01 0.02 0.00 0.00 0.00 0.01 0.01 0.07 0.04 0.00 0.00 0.00 0.00 0.00 0.00 0.00 0.00 0.00 0.00 0.00 0.00 0.00 0.00 0.00 0.00 0.00 0.00 0.00 0.00 0.00 0.00 0.00 0.00 0.00 0.00 0.01 0.00 0.00 0.00 0.00
0.00 0.01 0.01 0.00 0.00 0.00 0.00 0.00 0.01 0.02 0.03 0.02 0.00 0.00 0.00 0.00 0.00 0.00 0.00 0.00 0.00 0.00 0.00 0.00 0.00 0.00 0.00 0.00 0.00 0.00 0.00 0.00 0.00 0.00 0.00 0.00 0.00 0.00 0.01 0.01 0.00 0.00 0.00
0.00 0.00 0.00 0.00 0.00 0.00 0.00 0.00 0.00 0.02 0.00 0.01 0.00 0.00 0.00 0.00 0.00 0.00 0.00 0.00 0.00 0.00 0.00 0.00 0.00 0.00 0.00 0.00 0.00 0.00 0.00 0.00 0.00 0.00 0.00 0.00 0.00 0.00 0.00 0.00 0.00 0.00 0.00
0.00 0.00 0.00 0.00 0.00 0.00 0.00 0.00 0.00 0.01 0.00 0.00 0.00 0.00 0.00 0.00 0.00 0.00 0.00 0.00 0.00 0.00 0.00 0.00 0.00 0.00 0.00 0.00 0.00 0.00 0.00 0.00 0.00 0.00 0.00 0.00 0.00 0.00 0.00 0.00 0.00 0.00 0.00
0.00 0.00 0.00 0.00 0.00 0.00 0.00 0.00 0.00 0.00 0.00 0.00 0.00 0.00 0.00 0.00 0.00 0.00 0.00 0.00 0.00 0.00 0.00 0.00 0.00 0.00 0.00 0.00 0.00 0.00 0.00 0.00 0.00 0.00 0.00 0.00 0.00 0.00 0.00 0.00 0.00 0.00 0.00
0.00 0.00 0.00 0.00 0.00 0.00 0.00 0.00 0.00 0.00 0.00 0.00 0.00 0.02 0.03 0.01 0.00 0.00 0.00 0.00 0.00 0.00 0.00 0.00 0.00 0.00 0.00 0.00 0.00 0.00 0.00 0.00 0.00 0.00 0.00 0.00 0.00 0.00 0.00 0.00 0.00 0.00 0.00
0.00 0.00 0.00 0.00 0.00 0.00 0.01 0.01 0.00 0.00 0.00 0.00 0.01 0.01 0.03 0.00 0.00 0.00 0.00 0.00 0.00 0.00 0.00 0.00 0.00 0.00 0.00 0.00 0.00 0.00 0.00 0.00 0.00 0.00 0.00 0.00 0.00 0.00 0.00 0.00 0.00 0.00 0.00
0.00 0.00 0.00 0.00 0.00 0.01 0.02 0.00 0.00 0.00 0.00 0.00 0.05 0.03 0.19 0.07 0.02 0.00 0.00 0.00 0.00 0.00 0.00 0.00 0.00 0.00 0.00 0.00 0.00 0.00 0.00 0.00 0.00 0.00 0.00 0.00 0.00 0.00 0.00 0.00 0.00 0.00 0.00
0.00 0.00 0.00 0.00 0.00 0.00 0.00 0.00 0.00 0.00 0.00 0.00 0.01 0.04 0.13 0.07 0.00 0.00 0.00 0.00 0.00 0.00 0.00 0.00 0.00 0.00 0.00 0.00 0.00 0.00 0.00 0.00 0.00 0.00 0.00 0.00 0.00 0.00 0.00 0.00 0.00 0.00 0.00
0.00 0.00 0.00 0.00 0.00 0.00 0.00 0.00 0.00 0.00 0.00 0.00 0.00 0.02 0.03 0.04 0.00 0.00 0.00 0.00 0.00 0.00 0.00 0.00 0.00 0.00 0.00 0.00 0.00 0.00 0.00 0.00 0.00 0.00 0.00 0.00 0.00 0.00 0.00 0.00 0.00 0.00 0.00
0.00 0.00 0.00 0.00 0.00 0.00 0.00 0.00 0.00 0.00 0.00 0.00 0.00 0.00 0.00 0.00 0.01 0.03 0.00 0.00 0.00 0.00 0.00 0.00 0.00 0.00 0.00 0.00 0.00 0.00 0.00 0.00 0.00 0.00 0.00 0.00 0.00 0.00 0.00 0.00 0.00 0.00 0.00
0.00 0.00 0.00 0.00 0.00 0.00 0.00 0.00 0.00 0.00 0.00 0.00 0.00 0.00 0.00 0.00 0.00 0.03 0.00 0.00 0.00 0.00 0.00 0.00 0.00 0.00 0.00 0.00 0.00 0.00 0.00 0.00 0.00 0.00 0.00 0.00 0.00 0.00 0.00 0.00 0.00 0.00 0.00
0.00 0.00 0.00 0.00 0.00 0.00 0.00 0.00 0.00 0.01 0.00 0.00 0.01 0.02 0.00 0.00 0.01 0.02 0.02 0.00 0.00 0.00 0.00 0.00 0.00 0.00 0.00 0.00 0.00 0.00 0.00 0.00 0.00 0.00 0.00 0.00 0.00 0.00 0.00 0.00 0.00 0.00 0.00
MSLP
1007.85 1008.55 1009.66 1009.89 1010.36 1010.85 1011.43 1012.06 1012.74 1013.32 1013.87 1014.35 1014.60 1015.12 1015.53 1015.84 1016.10 1016.61 1016.98 1017.45 1017.65 1018.05 1018.29 1018.49 1018.78 1018.99 1019.05 1019.45 1019.52 1019.76 1019.77 1019.83 1020.09 1020.17 1020.49 1020.47 1020.63 1020.67 1020.69 1020.80 1020.87 1020.95 1020.83
1008.01 1008.60 1009.40 1010.04 1011.09 1011.33 1011.94 1012.48 1013.00 1013.62 1014.08 1014.56 1014.98 1015.45 1016.00 1016.38 1016.63 1016.91 1017.26 1017.69 1017.98 1018.47 1018.86 1019.07 1019.31 1019.70 1019.65 1019.85 1019.83 1020.19 1020.12 1020.29 1020.42 1020.11 1020.47 1021.01 1021.24 1021.25 1021.32 1021.56 1021.46 1021.66 1021.47
1010.23 1009.59 1009.50 1010.00 1010.76 1011.76 1012.22 1012.89 1013.37 1013.87 1014.37 1014.85 1015.35 1015.81 1016.35 1016.78 1017.12 1017.45 1017.69 1018.08 1018.54 1018.92 1019.20 1019.50 1019.90 1020.14 1020.12 1020.17 1020.06 1020.21 1020.43 1020.66 1020.76 1020.56 1020.53 1021.26 1021.70 1021.76 1021.93 1021.97 1021.99 1022.00 1022.11
1010.09 1010.54 1010.31 1010.25 1010.71 1011.68 1012.46 1013.24 1013.73 1014.15 1014.75 1015.14 1015.70 1016.25 1016.75 1017.31 1017.50 1017.73 1018.06 1018.52 1018.94 1019.26 1019.49 1019.91 1020.23 1020.42 1020.70 1020.55 1020.46 1020.40 1020.49 1020.64 1020.76 1021.02 1021.05 1021.54 1022.12 1022.39 1022.25 1022.38 1022.45 1022.24 1022.45
1010.05 1010.53 1011.03 1010.97 1011.38 1011.74 1012.60 1013.56 1014.14 1014.61 1015.07 1015.59 1016.19 1016.59 1017.09 1017.69 1017.84 1018.14 1018.52 1018.83 1019.35 1019.78 1019.88 1020.18 1020.65 1020.88 1021.08 1020.87 1020.85 1020.87 1020.76 1020.61 1020.73 1021.12 1021.86 1022.23 1022.45 1022.76 1022.78 1022.79 1022.90 1022.96 1023.02
1010.88 1010.39 1011.47 1011.56 1011.29 1012.06 1012.99 1013.91 1014.51 1015.09 1015.66 1016.01 1016.49 1016.98 1017.31 1017.93 1018.18 1018.66 1018.93 1019.22 1019.68 1020.09 1020.40 1020.69 1021.15 1021.41 1021.50 1021.25 1021.12 1021.07 1020.78 1020.63 1020.91 1021.62 1022.52 1022.92 1023.12 1023.08 1023.16 1023.37 1023.50 1023.52 1023.51
1009.76 1010.75 1011.34 1011.68 1011.63 1012.48 1013.48 1014.25 1014.89 1015.54 1015.95 1016.48 1017.02 1017.53 1017.74 1018.22 1018.73 1019.02 1019.45 1019.76 1020.14 1020.49 1020.92 1021.38 1021.58 1021.81 1021.77 1021.59 1021.36 1021.15 1020.90 1020.74 1021.13 1022.08 1023.03 1023.45 1023.64 1023.63 1023.65 1023.73 1024.00 1023.97 1024.15
1008.87 1010.63 1012.03 1012.19 1012.73 1013.02 1013.86 1014.66 1015.25 1015.88 1016.59 1016.87 1017.23 1017.98 1018.32 1018.64 1019.11 1019.51 1019.87 1020.29 1020.66 1021.01 1021.37 1021.77 1022.00 1022.12 1022.12 1022.03 1021.80 1021.63 1021.41 1021.21 1021.65 1022.39 1023.18 1023.76 1023.93 1023.95 1024.15 1024.23 1024.41 1024.43 1024.53
1011.11 1011.13 1012.42 1012.86 1013.85 1014.09 1014.54 1015.29 1015.79 1016.29 1016.70 1017.43 1017.99 1018.44 1018.89 1019.15 1019.47 1020.01 1020.37 1020.72 1021.00 1021.40 1021.71 1022.08 1022.41 1022.48 1022.54 1022.36 1022.12 1021.94 1021.79 1021.85 1021.93 1022.63 1023.29 1023.94 1024.12 1024.30 1024.53 1024.72 1024.92 1024.91 1024.90
1011.75 1012.96 1013.61 1013.95 1014.38 1014.89 1015.21 1015.81 1016.45 1017.13 1017.46 1017.56 1018.52 1019.20 1019.39 1019.74 1019.90 1020.33 1020.90 1021.30 1021.50 1021.77 1022.11 1022.30 1022.64 1022.78 1022.80 1022.79 1022.51 1022.48 1022.35 1022.19 1022.31 1022.88 1023.74 1024.27 1024.36 1024.55 1024.67 1024.86 1025.25 1025.28 1025.35
1013.85 1014.17 1014.40 1014.60 1014.95 1015.13 1016.09 1016.24 1016.77 1017.14 1018.28 1018.35 1018.96 1019.64 1019.63 1020.11 1020.47 1020.70 1021.29 1021.67 1021.94 1022.24 1022.30 1022.55 1022.73 1022.87 1022.83 1022.78 1022.61 1022.81 1022.69 1022.43 1022.91 1023.59 1024.22 1024.42 1024.53 1024.75 1024.89 1025.01 1025.56 1025.54 1025.84
1014.71 1015.10 1015.07 1015.51 1016.02 1016.02 1016.47 1016.44 1017.01 1017.92 1018.52 1018.91 1019.09 1019.54 1019.74 1020.48 1020.73 1021.15 1021.68 1021.96 1022.27 1022.49 1022.64 1022.65 1022.87 1022.95 1023.21 1022.95 1022.88 1022.96 1022.87 1022.81 1023.44 1024.05 1024.63 1024.61 1024.64 1024.97 1025.01 1025.30 1025.52 1025.65 1026.04
1015.22 1015.37 1015.93 1016.15 1016.68 1017.13 1017.41 1017.21 1017.94 1018.30 1018.95 1019.23 1019.34 1019.25 1020.35 1020.97 1021.14 1021.49 1021.95 1022.35 1022.61 1022.81 1022.82 1022.89 1023.19 1023.47 1023.13 1023.02 1023.34 1023.25 1023.26 1023.06 1023.77 1024.26 1024.85 1024.90 1025.01 1025.14 1025.19 1025.52 1025.87 1026.10 1026.15
1015.93 1016.19 1016.41 1016.71 1016.96 1017.38 1017.93 1018.50 1018.24 1018.57 1019.47 1019.64 1019.58 1020.15 1020.66 1021.13 1021.33 1021.47 1021.90 1022.19 1022.68 1022.64 1022.80 1022.90 1023.09 1023.19 1023.17 1023.36 1023.42 1023.57 1023.52 1023.45 1024.03 1024.32 1024.77 1025.08 1025.35 1025.38 1025.44 1025.65 1026.18 1026.58 1026.39
1016.19 1016.68 1017.04 1017.16 1017.42 1017.86 1018.94 1019.33 1018.88 1019.81 1020.52 1020.17 1020.30 1020.64 1020.76 1020.96 1021.04 1021.15 1021.52 1021.89 1022.21 1022.41 1022.50 1022.67 1023.04 1023.30 1023.38 1023.40 1023.55 1023.59 1023.85 1023.76 1024.02 1024.76 1025.10 1025.18 1025.42 1025.52 1025.61 1025.78 1026.27 1026.65 1026.62
1016.35 1016.90 1017.12 1017.60 1017.96 1018.55 1019.40 1019.54 1020.03 1020.65 1021.05 1020.57 1020.55 1020.39 1020.49 1020.68 1020.55 1020.76 1021.15 1021.47 1021.76 1021.98 1022.32 1022.49 1022.92 1023.07 1023.40 1023.41 1023.83 1023.89 1024.10 1024.16 1024.20 1024.91 1025.17 1025.53 1025.62 1025.83 1025.80 1026.10 1026.46 1026.58 1026.70
1016.69 1017.32 1017.69 1018.21 1018.71 1019.42 1019.77 1020.25 1020.63 1021.09 1020.59 1020.62 1019.98 1019.92 1020.01 1020.07 1020.46 1020.81 1021.15 1021.45 1021.62 1021.80 1022.02 1022.31 1022.53 1022.90 1023.15 1023.42 1023.94 1024.18 1024.20 1024.41 1024.58 1024.59 1025.36 1025.54 1025.84 1026.11 1026.13 1026.54 1026.83 1026.93 1026.95
1016.61 1017.50 1018.04 1018.47 1019.02 1019.39 1019.58 1019.85 1020.27 1020.00 1019.65 1019.58 1019.65 1019.75 1019.75 1020.03 1020.31 1020.90 1021.07 1021.22 1021.38 1021.59 1021.98 1022.54 1022.85 1023.24 1023.29 1023.53 1023.92 1024.02 1024.18 1024.43 1024.74 1024.98 1025.01 1025.39 1025.72 1026.18 1026.46 1026.54 1026.83 1027.04 1027.20
1016.25 1017.09 1017.59 1018.13 1018.41 1018.48 1018.97 1019.13 1019.01 1018.83 1019.03 1019.17 1019.05 1019.12 1019.49 1019.68 1020.11 1020.68 1020.84 1020.98 1021.16 1021.63 1022.03 1022.35 1022.70 1022.82 1023.07 1023.51 1023.88 1024.06 1024.03 1024.46 1024.77 1024.64 1025.14 1025.25 1025.45 1025.96 1026.35 1026.54 1026.66 1026.90 1027.11
1015.81 1016.32 1016.88 1017.35 1017.52 1017.94 1018.48 1018.46 1018.62 1018.51 1018.65 1018.67 1018.71 1018.83 1019.11 1019.43 1019.79 1020.30 1020.44 1020.68 1021.19 1021.48 1022.00 1022.11 1022.49 1022.67 1023.02 1023.33 1023.47 1023.88 1024.16 1024.48 1024.44 1024.64 1025.02 1025.19 1025.30 1025.54 1026.03 1026.59 1026.64 1026.81 1027.01
1015.40 1015.87 1016.27 1016.65 1017.02 1017.61 1018.08 1018.48 1018.11 1017.96 1018.15 1018.39 1018.33 1018.15 1018.84 1019.32 1019.35 1019.95 1020.31 1020.72 1021.21 1021.54 1021.73 1022.11 1022.29 1022.65 1023.20 1023.46 1023.77 1023.92 1023.86 1024.19 1024.52 1024.50 1024.62 1025.04 1025.00 1025.30 1025.74 1025.97 1026.30 1026.62 1026.97
1014.72 1015.37 1015.73 1016.01 1016.37 1016.83 1017.25 1017.41 1017.24 1017.28 1017.44 1017.54 1017.55 1017.87 1018.81 1019.75 1018.83 1019.44 1019.98 1020.31 1020.79 1021.40 1021.60 1021.83 1022.28 1022.81 1023.10 1023.42 1023.90 1024.06 1024.00 1024.56 1024.71 1024.42 1024.47 1024.76 1024.88 1025.05 1025.31 1025.60 1025.90 1026.24 1026.51
1013.45 1014.19 1014.58 1014.99 1015.55 1015.96 1016.27 1016.35 1016.48 1016.48 1016.76 1016.89 1017.09 1017.46 1017.67 1018.36 1018.39 1018.81 1019.52 1019.96 1020.56 1020.92 1021.10 1021.58 1022.16 1022.56 1023.13 1023.51 1023.76 1024.31 1024.24 1024.37 1024.37 1024.08 1024.39 1024.62 1024.89 1025.18 1025.34 1025.48 1025.61 1025.86 1026.19
1011.96 1012.88 1013.35 1013.78 1014.22 1014.64 1014.91 1015.11 1015.27 1015.64 1015.96 1015.99 1016.46 1016.99 1017.35 1017.82 1018.11 1018.42 1019.13 1019.68 1020.13 1020.55 1021.00 1021.50 1022.22 1022.64 1022.96 1023.54 1023.92 1024.05 1024.16 1024.44 1024.56 1024.95 1024.44 1024.38 1024.43 1024.83 1025.09 1025.36 1025.38 1025.53 1025.73
1010.75 1011.47 1012.04 1012.51 1013.01 1013.41 1013.90 1014.24 1014.44 1014.77 1015.18 1015.45 1015.56 1016.00 1016.66 1017.33 1017.77 1018.51 1018.90 1019.34 1019.87 1020.40 1021.07 1021.60 1022.26 1022.80 1023.09 1023.66 1024.31 1024.54 1024.45 1024.52 1024.45 1025.03 1024.94 1024.49 1024.58 1024.49 1024.40 1024.78 1024.95 1025.24 1025.41
1009.74 1010.45 1010.98 1011.38 1011.67 1012.18 1012.72 1013.29 1013.78 1014.32 1014.76 1015.16 1015.39 1015.76 1016.13 1016.70 1017.34 1017.80 1018.37 1019.00 1019.86 1020.55 1021.33 1022.40 1022.72 1022.90 1023.29 1023.87 1024.34 1024.66 1024.74 1024.83 1024.09 1024.51 1024.65 1024.40 1024.32 1024.15 1024.07 1024.15 1024.55 1024.78 1024.95
Thickness
5736 5733 5728 5729 5728 5726 5724 5722 5718 5715 5711 5707 5705 5702 5698 5697 5696 5692 5688 5684 5683 5679 5678 5677 5675 5673 5673 5668 5667 5665 5666 5666 5664 5663 5660 5660 5658 5657 5657 5655 5653 5652 5654
5718 5731 5729 5726 5719 5718 5714 5713 5711 5707 5704 5701 5698 5695 5691 5688 5687 5686 5684 5680 5679 5673 5670 5669 5668 5664 5665 5664 5664 5660 5662 5661 5659 5662 5659 5654 5651 5650 5650 5647 5648 5644 5647
5691 5719 5724 5721 5718 5710 5708 5704 5703 5700 5697 5693 5690 5688 5684 5681 5679 5677 5677 5673 5670 5667 5666 5663 5660 5657 5659 5658 5660 5659 5657 5655 5655 5656 5656 5650 5645 5644 5642 5642 5641 5641 5639
5702 5703 5710 5713 5712 5707 5701 5696 5694 5692 5688 5686 5684 5681 5677 5673 5672 5672 5669 5666 5663 5661 5660 5657 5655 5655 5651 5653 5654 5655 5654 5653 5653 5649 5649 5645 5639 5638 5639 5637 5636 5638 5635
5696 5696 5697 5700 5700 5699 5695 5688 5685 5683 5681 5679 5676 5674 5670 5664 5665 5663 5660 5660 5656 5653 5655 5653 5649 5647 5646 5648 5649 5648 5649 5652 5650 5647 5641 5637 5635 5632 5632 5632 5631 5630 5629
5678 5692 5686 5691 5697 5685 5684 5680 5677 5674 5671 5671 5669 5666 5663 5657 5657 5654 5653 5652 5650 5647 5646 5645 5641 5639 5640 5643 5645 5645 5647 5649 5644 5639 5632 5630 5629 5630 5629 5627 5625 5625 5624
5674 5676 5682 5684 5688 5682 5676 5673 5670 5666 5664 5662 5661 5658 5655 5651 5647 5646 5644 5642 5641 5640 5637 5635 5634 5634 5635 5637 5640 5642 5643 5646 5642 5635 5627 5625 5623 5622 5622 5622 5618 5618 5616
5689 5670 5666 5672 5669 5672 5667 5665 5663 5659 5654 5652 5653 5648 5646 5644 5640 5639 5637 5634 5633 5631 5630 5628 5628 5628 5629 5631 5634 5636 5638 5640 5637 5632 5627 5621 5619 5618 5615 5614 5612 5612 5610
5664 5652 5656 5663 5658 5659 5659 5656 5653 5650 5648 5643 5640 5639 5637 5636 5634 5630 5628 5627 5627 5625 5624 5623 5622 5623 5625 5627 5630 5632 5634 5633 5633 5629 5622 5617 5615 5612 5609 5606 5603 5603 5602
5665 5650 5653 5652 5649 5650 5649 5647 5644 5638 5638 5637 5631 5629 5630 5627 5626 5625 5621 5619 5620 5619 5618 5620 5619 5619 5621 5622 5626 5626 5629 5631 5629 5624 5616 5611 5609 5605 5603 5600 5595 5594 5593
5642 5641 5643 5645 5643 5647 5638 5635 5636 5635 5626 5625 5623 5620 5621 5618 5617 5616 5614 5611 5610 5610 5614 5616 5618 5617 5619 5620 5622 5622 5623 5625 5622 5616 5611 5606 5603 5599 5596 5595 5586 5585 5580
5633 5632 5635 5633 5631 5633 5631 5629 5629 5623 5616 5616 5618 5615 5613 5609 5608 5606 5604 5604 5603 5605 5610 5614 5614 5615 5612 5617 5619 5618 5619 5619 5614 5609 5603 5601 5598 5591 5589 5584 5581 5578 5572
5627 5628 5626 5625 5622 5621 5621 5624 5618 5617 5607 5607 5609 5612 5603 5601 5601 5600 5599 5597 5597 5602 5606 5610 5610 5608 5611 5613 5612 5614 5613 5614 5608 5603 5596 5593 5586 5584 5583 5579 5573 5569 5568
5618 5619 5618 5616 5616 5615 5612 5611 5614 5609 5601 5599 5601 5598 5596 5594 5594 5597 5597 5595 5594 5601 5604 5606 5607 5607 5609 5608 5609 5608 5608 5608 5602 5597 5591 5585 5581 5578 5576 5573 5566 5560 5560
5614 5611 5609 5611 5609 5605 5597 5598 5603 5596 5589 5589 5591 5591 5591 5590 5594 5599 5598 5596 5599 5600 5603 5605 5605 5603 5604 5605 5604 5603 5600 5599 5595 5589 5585 5582 5576 5571 5570 5566 5559 5554 5553
5609 5605 5605 5603 5600 5597 5591 5593 5589 5584 5578 5583 5585 5589 5590 5593 5598 5600 5600 5601 5601 5601 5601 5604 5602 5603 5601 5602 5598 5596 5593 5591 5589 5584 5580 5574 5570 5566 5563 5557 5551 5548 5546
5601 5598 5596 5593 5592 5586 5585 5583 5580 5576 5580 5583 5588 5590 5593 5598 5599 5599 5600 5601 5601 5601 5602 5603 5603 5601 5600 5596 5592 5589 5588 5583 5581 5577 5573 5569 5564 5559 5556 5549 5544 5540 5538
5599 5592 5589 5589 5586 5584 5583 5582 5579 5583 5587 5586 5590 5594 5599 5599 5602 5598 5600 5600 5601 5603 5601 5598 5596 5595 5594 5592 5589 5587 5584 5579 5574 5569 5564 5563 5560 5554 5548 5544 5538 5533 5528
5603 5597 5594 5593 5591 5592 5590 5589 5591 5597 5596 5594 5599 5603 5601 5603 5602 5599 5599 5601 5602 5601 5599 5596 5595 5594 5590 5587 5584 5583 5580 5573 5567 5566 5560 5555 5551 5548 5543 5537 5531 5526 5519
5611 5609 5605 5604 5606 5601 5596 5595 5596 5599 5599 5602 5604 5605 5607 5606 5603 5601 5601 5602 5599 5600 5596 5596 5592 5589 5588 5583 5583 5578 5572 5565 5564 5560 5556 5549 5546 5537 5531 5527 5523 5518 5511
5618 5617 5614 5613 5611 5604 5599 5597 5602 5605 5606 5606 5608 5611 5608 5603 5606 5601 5600 5599 5597 5597 5594 5590 5588 5585 5578 5576 5571 5569 5567 5564 5559 5557 5552 5543 5539 5533 5524 5517 5511 5507 5501
5623 5620 5618 5617 5615 5613 5611 5610 5612 5614 5613 5613 5615 5614 5606 5593 5608 5603 5601 5600 5597 5592 5590 5588 5583 5578 5575 5570 5563 5560 5557 5551 5547 5547 5544 5535 5530 5523 5517 5511 5504 5495 5487
5635 5630 5629 5627 5623 5620 5619 5620 5620 5620 5618 5618 5618 5617 5616 5610 5611 5608 5603 5600 5595 5590 5590 5585 5578 5575 5567 5564 5560 5551 5547 5542 5539 5538 5529 5523 5519 5513 5505 5497 5493 5486 5479
5646 5640 5638 5636 5633 5632 5631 5628 5628 5623 5620 5624 5621 5619 5616 5612 5610 5609 5602 5598 5594 5590 5585 5580 5571 5567 5563 5553 5550 5545 5540 5532 5526 5516 5519 5517 5512 5504 5498 5490 5482 5473 5466
5655 5650 5648 5646 5643 5641 5637 5635 5631 5628 5627 5626 5626 5623 5618 5613 5610 5604 5600 5597 5591 5586 5579 5570 5563 5557 5554 5545 5536 5531 5528 5522 5517 5506 5500 5501 5498 5492 5487 5480 5475 5466 5457
5661 5657 5654 5652 5652 5649 5645 5640 5635 5630 5627 5624 5623 5621 5618 5615 5611 5604 5600 5595 5588 5579 5571 5559 5553 5551 5546 5536 5528 5521 5516 5509 5511 5499 5494 5493 5485 5479 5473 5467 5459 5451 5443